XINGYUN-2 02 (45603 NORAD) Tracking and Keplerian Element Data

This shows tracking and keplerian element data for the satellite.

Feedback or suggestion? Click here.




ElementValue
Catalog45603
NameXINGYUN-2 02
Epoch Orbit182
Epoch Day145.23138171
Epoch Year2020
RAAN176.0134
Inclination97.553
Eccentricity0.0010488
Argument of Perigee218.5772
Mean Anonmoly141.4931
Mean Motion15.00589166
Decay Rate3.01E-06
L11 45603U 20028B 20145.23138171 .00000301 00000-0 28386-4 0 9993
L22 45603 97.5530 176.0134 0010488 218.5772 141.4931 15.00589166 1829

Live tracking and technical data element details for XINGYUN-2 02 (NORAD 45603). XINGYUN-2 02 can be tracked NOW for your location showing map with azimuth and elevation plus other details from your city location.

Track the satellite on the map from your city or location and see movement details for azimuth, elevation, latitude, longitude, range, height, and movement on the map or in text.







IsCatalogInMostPopularTable: catalog: 45603, numindb: 1
Update: records affected: 1



GetName: 45603 XINGYUN-2 02

Hit Count: updated at: Tue, 26 May 2020 03:03:41 GMT